Weather Service Report


493 
ASUS42 KFFC 250803
RWRGA 
WEATHER ROUNDUP FOR GEORGIA
NATIONAL WEATHER SERVICE PEACHTREE CITY GA
400 AM EDT MON JUL 25 2016

NOTE: "FAIR" INDICATES FEW OR NO CLOUDS BELOW 12,000 FEET WITH NO
SIGNIFICANT WEATHER AND/OR OBSTRUCTIONS TO VISIBILITY. 

* = USE WITH CAUTION. THE STATIONS MARKED WITH AN ASTERISK MAY NOT
REPORT WEATHER SUCH AS PRECIPITATION, FOG, OR THUNDER AND ARE NOT 
QUALITY CONTROLLED BY NWS.

THE REMARK "TC" DENOTES TEMPERATURE READING IN DEGREES CELSIUS.

GAZ001>058-250900-
NORTH GEORGIA
  
CITY           SKY/WX    TMP DP  RH WIND       PRES   REMARKS
ATLANTA        PTCLDY    78  70  76 CALM      30.03S                  
ATHENS         CLEAR     78  72  81 VRB3      30.03F                  
CHAMBLEE       CLEAR     74  70  87 CALM      30.03S                  
PEACHTREE CITY CLEAR     72  70  93 CALM      30.04R                  
ROME           CLEAR     75  72  90 N3        30.02R                  
WEST ATLANTA   CLEAR     73  70  90 CALM      30.02S                  
CARTERSVILLE   CLEAR     70  69  97 CALM      30.04R                  

  
CITY           SKY/WX    TMP DP  RH WIND       PRES   REMARKS
DALTON*        CLEAR     72  72 100 CALM      30.04R                  
MARIETTA       CLEAR     74  73  95 CALM      30.04R                  
CANTON*        CLEAR     72  68  88 CALM      30.07R FOG              
BLAIRSVILLE*     N/A    N/A N/A N/A MISG      30.11R HAZE             
$$

GAZ059>098-102>109-250900-
CENTRAL GEORGIA
  
CITY           SKY/WX    TMP DP  RH WIND       PRES   REMARKS
AUGUSTA-BUSH   CLOUDY    78  71  79 S5        30.01F                  
AUGUSTA-DANIEL CLOUDY    82  69  64 S6        30.03F                  
COLUMBUS       CLEAR     79  72  79 CALM      30.00F                  
MACON          CLEAR     79  69  71 S3        30.01F                  
ROBINS AFB     CLEAR     76  72  89 S3        30.00F                  

  
CITY           SKY/WX    TMP DP  RH WIND       PRES   REMARKS
LAGRANGE*      CLEAR     74  74 100 CALM      30.02R                  
MILLEDGEVILLE* CLEAR     75  73  94 CALM      30.01F                  
$$

GAZ099>101-110>166-250900-
SOUTH GEORGIA
  
CITY           SKY/WX    TMP DP  RH WIND       PRES   REMARKS
SAVANNAH       CLEAR     78  73  84 SW5       30.04S                  
VALDOSTA       CLEAR     74  74 100 CALM      30.03S                  
ALMA           CLEAR     73  71  93 SE3       30.03F                  
ST SIMONS      CLEAR     82  73  74 S7        30.03F                  
FT STEWART     CLEAR     73  71  94 CALM      30.01F                  
ALBANY         PTCLDY    76  73  91 CALM      30.03S                  
HUNTER AFB     CLEAR     76  76 100 W2        30.01F                  
MOODY AFB      CLEAR     73  71  94 SE3       30.02F                  
BRUNSWICK      CLEAR     81  75  83 SW5       30.04F                  

  
CITY           SKY/WX    TMP DP  RH WIND       PRES   REMARKS
BAINBRIDGE*    CLEAR     77  72  83 CALM      30.01S                  
MOULTRIE*      PTCLDY    73  72  94 CALM      30.03S                  
VIDALIA*       CLEAR     77  72  83 S3        30.03F                  
WAYCROSS*      CLEAR     74  74  99 CALM      30.03F                  
DOUGLAS*       CLEAR     73  72  94 CALM      30.04F                  
$$
  

Return to Home page


Western Regional Climate Center, wrcc@dri.edu